Location: Menands
(42.6920°N, 73.7246°W)
Time: 02:46:21
(UTC+00:00)

Cosmos 2098 Rocket - Pass Details

Date: 18 February 2026
Orbit: 348 x 855 km, 82.9° (Epoch: 5 March)

Event Time Altitude Azimuth Distance (km) Brightness Sun altitude
Rises 23:28:38 0° 10° (N) 2,336 5.9 -11.3°
Reaches altitude 10° 23:30:58 10° 29° (NNE) 1,541 4.8 -11.7°
Enters shadow 23:33:05 19° 69° (ENE) 1,172 3.9 -12.1°
